Regional Weather Roundup
Issued by NWS Cleveland, OH

Home | Current Version | Previous Version | Text Only | Print | Product List | Glossary On
Versions: 1 2 3 4 5 6 7 8 9 10 11 12 13 14 15 16 17 18 19 20 21 22 23 24 25 26 27 28 29 30 31 32 33 34 35 36 37 38 39 40 41 42 43 44 45 46 47 48 49 50
000
ASUS41 KCLE 222312
RWRCLE
OHIO REGIONAL WEATHER ROUNDUP
NATIONAL WEATHER SERVICE WILMINGTON, OH
700 PM EDT SAT JUL 22 2017

NOTE: "FAIR" INDICATES FEW OR NO CLOUDS BELOW 12,000 FEET WITH NO
SIGNIFICANT WEATHER AND/OR OBSTRUCTIONS TO VISIBILITY.

OHZ001>008-015>018-024>027-034-035-043-044-230000-
   NORTHWEST OHIO

CITY           SKY/WX    TMP DP  RH WIND       PRES   REMARKS
DEFIANCE       FAIR     N/A N/A N/A NW10      29.78S
FINDLAY        FAIR      85  69  58 W13       29.77S
TOLEDO EXPRESS FAIR      84  71  65 W14       29.76R
TOLEDO EXEC    FAIR      85  73  67 NW12      29.76R HX  91
LIMA           FAIR      81  72  74 W8        29.81R
$$

OHZ009>014-019>023-028>033-038-089-230000-
   NORTHEAST OHIO

CITY           SKY/WX    TMP DP  RH WIND       PRES   REMARKS
CLE-HOPKINS    PTSUNNY   85  72  65 NW8       29.78R HX  91
CLE-LAKEFRONT  FAIR      82  72  71 NW3       29.75S
CUY CO. ARPT   PTSUNNY   82  73  74 W9        29.78R
LORAIN-ELYRIA  FAIR      82  69  64 W5        29.77S
ASHTABULA      CLOUDY    77  73  87 NE6       29.79S
AKRON-CANTON   FAIR      82  71  69 W10       29.79S
WOOSTER        PTSUNNY   80  73  79 W3        29.79F
MANSFIELD      FAIR      83  71  67 W7        29.80R
YOUNGSTOWN     PTSUNNY   78  70  76 W8        29.79S
$$

OHZ042-051>053-060>062-070>072-077>081-230000-
  SOUTHWEST OHIO

CITY           SKY/WX    TMP DP  RH WIND       PRES   REMARKS
CINC-COVINGTON PTSUNNY   88  77  69 W9        29.83R HX 100
CINC-LUNKEN    FAIR      89  77  67 W8G18     29.80S HX 101
HAMILTON       FAIR      88  74  63 W8        29.82R HX  96
DAYTON         PTSUNNY   83  71  67 NW9       29.83R
WRIGHT-PAT AFB PTSUNNY   85  74  68 NW10      29.81R HX  92
DAYTON GENERAL PTSUNNY   86  72  62 W13       29.82R HX  92
WILMINGTON     FAIR      88  75  65 W10G20    29.81R HX  97
$$

OHZ036-037-039>041-045>050-054>059-063>069-073>076-082>088-230000-
  CENTRAL AND SOUTHEAST OHIO

CITY           SKY/WX    TMP DP  RH WIND       PRES   REMARKS
COLUMBUS       PTSUNNY   87  75  67 NW15      29.78R HX  96
OSU AIRPORT    FAIR      85  73  67 W15       29.79R HX  91
BOLTON FIELD   SUNNY     84  75  74 NW13G21   29.80R HX  92
RICKENBACK AFB FAIR      85  76  74 NW12G17   29.78S HX  94
NEWARK         FAIR      80  74  81 CALM      29.79S
MARION         FAIR      83  70  64 W13       29.80R
LANCASTER      FAIR      77  74  90 CALM      29.80R
ZANESVILLE     CLOUDY    76  72  87 CALM      29.81R
NEW PHILLY     FAIR      78  75  90 SE3       29.79S
$$




USA.gov is the U.S. government's official web portal to all federal, state and local government web resources and services.